Location: Wolf Lake
(46.8518°N, 80.6381°W)
Time: 06:10:03
(UTC-05:00)

ISS - Visible Passes

Search period start: 23 November 2017 00:00
Search period end: 03 December 2017 00:00
Orbit: 402 x 407 km, 51.6° (Epoch: 23 November)

Date Brightness Start Highest point End Pass type
(mag) Time Alt. Az. Time Alt. Az. Time Alt. Az.
26 Nov -1.4 18:35:04 10° S 18:35:51 13° SSE 18:35:51 13° SSE visible
27 Nov -1.1 19:17:50 10° SW 19:18:37 16° SW 19:18:37 16° SW visible
28 Nov -2.8 18:25:48 10° SSW 18:28:36 33° SSE 18:28:36 33° SSE visible
29 Nov -2.0 17:34:07 10° S 17:36:36 20° SE 17:38:30 13° E visible
29 Nov -1.7 19:09:30 10° WSW 19:11:10 27° WSW 19:11:10 27° WSW visible
30 Nov -3.8 18:17:09 10° SW 18:20:25 68° SSE 18:21:00 53° E visible
01 Dec -3.0 17:25:01 10° SW 17:28:06 40° SE 17:30:46 13° ENE visible
01 Dec -2.1 19:01:22 10° W 19:03:25 32° WNW 19:03:25 32° WNW visible
02 Dec -3.7 18:08:50 10° WSW 18:12:06 67° NNW 18:13:09 39° NE visible
